Location: *
(45.4590°N, 16.3650°E)
Time: 22:01:41
(UTC+00:00)

Cosmos 1340 Rocket - Pass Details

Date: 17 January 2020
Orbit: 529 x 559 km, 81.2° (Epoch: 16 February)

Event Time Altitude Azimuth Distance (km) Brightness Sun altitude
Rises 16:52:44 0° 355° (N) 2,688 6.2 -12.6°
Reaches altitude 10° 16:54:59 10° 3° (N) 1,796 5.2 -13.0°
Maximum altitude 16:58:44 42° 75° (ENE) 780 3.1 -13.6°
Drops below altitude 10° 17:02:30 10° 147° (SSE) 1,795 5.3 -14.3°
Sets 17:04:44 0° 154° (SSE) 2,687 6.2 -14.7°
